Zurück zum Katalog

QIANFAN-34

AktivKommunikationPO
NORAD 61567·PAYLOAD·🇨🇳 China

Gestartet Oct 15, 2024 von Taiyuan Satellite Launch Center

Loading…

Nächste Überflüge (nächste 24 Stunden)

TLE

AktuellSource: Space-Track

Epoche: Sep 14, 2026, 13:32 UTC

1 61567U 24185R   26257.56422106  .00000433  00000-0  27231-3 0  9991
2 61567  88.9803  47.2577 0006164 160.0829 200.0593 14.02517406108017

Verfolge QIANFAN-34 in Echtzeit mit AllMySat

Download on the App Store